Total_Precipitation_Accumulation
1.28 1.40 1.48 1.53 1.55 1.50 1.52 1.56 1.64 1.61 1.49 1.30 1.26 1.21 1.17 1.17 1.33 1.06 1.06 1.26 1.17 1.08 1.02 0.97 0.95 0.89 0.82 0.78 0.74 0.72 0.72 0.73 0.78 0.83 0.88 0.96 1.07 1.22
1.03 1.15 1.26 1.36 1.50 1.54 1.60 1.63 1.63 1.63 1.57 1.36 1.30 1.30 1.23 1.16 1.37 1.14 1.11 1.19 1.05 0.95 0.86 0.80 0.78 0.74 0.70 0.69 0.69 0.68 0.65 0.64 0.64 0.66 0.71 0.75 0.83 0.93
0.81 0.90 1.03 1.11 1.23 1.31 1.38 1.42 1.51 1.54 1.53 1.43 1.33 1.33 1.28 1.27 1.28 1.14 1.04 0.98 0.95 0.90 0.77 0.70 0.67 0.63 0.62 0.64 0.66 0.65 0.64 0.62 0.62 0.62 0.65 0.68 0.71 0.74
0.67 0.74 0.82 0.87 0.97 1.00 1.07 1.15 1.22 1.28 1.33 1.43 1.49 1.41 1.32 1.31 1.23 1.07 0.89 0.78 0.78 0.82 0.74 0.69 0.68 0.68 0.67 0.66 0.66 0.63 0.59 0.52 0.52 0.55 0.58 0.58 0.58 0.61
0.53 0.58 0.64 0.69 0.72 0.72 0.76 0.80 0.88 0.99 1.15 1.25 1.34 1.35 1.31 1.30 1.27 1.03 0.86 0.83 0.67 0.67 0.63 0.64 0.65 0.65 0.65 0.60 0.55 0.52 0.49 0.41 0.35 0.36 0.39 0.43 0.45 0.46
0.40 0.45 0.49 0.50 0.52 0.54 0.56 0.60 0.68 0.84 1.00 1.09 1.08 1.10 1.13 1.07 1.12 1.04 0.93 0.81 0.68 0.51 0.49 0.46 0.48 0.47 0.48 0.45 0.43 0.41 0.40 0.39 0.36 0.33 0.31 0.28 0.27 0.27
0.32 0.33 0.36 0.40 0.43 0.43 0.43 0.51 0.63 0.79 0.89 0.96 0.98 0.92 0.90 0.90 0.91 0.86 0.86 0.82 0.69 0.53 0.48 0.39 0.37 0.40 0.43 0.42 0.40 0.35 0.31 0.28 0.28 0.26 0.24 0.22 0.20 0.19
0.35 0.31 0.30 0.30 0.34 0.36 0.39 0.45 0.55 0.64 0.70 0.76 0.81 0.82 0.80 0.78 0.82 0.81 0.81 0.82 0.79 0.62 0.58 0.49 0.37 0.44 0.45 0.41 0.33 0.27 0.26 0.26 0.25 0.25 0.24 0.23 0.21 0.18
0.40 0.37 0.31 0.27 0.34 0.36 0.37 0.41 0.45 0.48 0.55 0.65 0.73 0.73 0.72 0.77 0.86 0.87 0.86 0.86 0.81 0.65 0.66 0.67 0.54 0.54 0.41 0.32 0.29 0.24 0.23 0.24 0.24 0.21 0.21 0.20 0.19 0.19
0.39 0.39 0.40 0.41 0.38 0.38 0.35 0.37 0.42 0.47 0.52 0.57 0.69 0.70 0.64 0.69 0.82 0.86 0.83 0.80 0.75 0.70 0.73 0.77 0.59 0.52 0.38 0.43 0.38 0.29 0.23 0.26 0.26 0.20 0.18 0.17 0.16 0.17
0.31 0.33 0.34 0.37 0.36 0.37 0.37 0.41 0.43 0.47 0.46 0.53 0.58 0.62 0.67 0.70 0.71 0.74 0.82 0.92 0.89 0.78 0.76 0.82 0.70 0.55 0.45 0.50 0.46 0.35 0.33 0.37 0.35 0.25 0.18 0.16 0.16 0.17
0.30 0.30 0.31 0.28 0.26 0.27 0.31 0.43 0.53 0.50 0.46 0.51 0.67 0.84 0.90 0.87 0.77 0.78 0.89 0.97 0.96 0.97 0.82 0.82 0.83 0.69 0.62 0.51 0.49 0.50 0.53 0.60 0.53 0.38 0.25 0.20 0.19 0.23
0.32 0.32 0.32 0.25 0.21 0.22 0.29 0.40 0.45 0.43 0.49 0.66 0.87 0.98 0.95 0.87 0.77 0.73 0.80 0.90 0.97 1.03 0.85 0.81 0.86 0.86 0.87 0.71 0.50 0.54 0.65 0.78 0.79 0.64 0.43 0.31 0.26 0.24
0.32 0.30 0.29 0.26 0.22 0.23 0.26 0.32 0.34 0.42 0.61 0.81 0.92 0.90 0.76 0.65 0.63 0.60 0.62 0.70 0.83 0.85 0.77 0.77 0.86 0.87 0.89 0.82 0.64 0.59 0.71 0.87 0.93 0.83 0.65 0.51 0.41 0.34
0.29 0.27 0.26 0.28 0.29 0.36 0.37 0.35 0.41 0.57 0.72 0.81 0.84 0.77 0.67 0.59 0.55 0.55 0.54 0.62 0.67 0.62 0.54 0.57 0.70 0.75 0.82 0.83 0.80 0.83 0.90 1.04 1.06 0.99 0.85 0.69 0.55 0.44
0.29 0.32 0.39 0.44 0.45 0.48 0.52 0.56 0.58 0.61 0.62 0.70 0.71 0.65 0.57 0.52 0.51 0.48 0.52 0.58 0.63 0.63 0.55 0.51 0.58 0.70 0.82 0.82 0.90 0.98 1.00 1.18 1.19 1.07 1.00 0.89 0.73 0.56
0.26 0.38 0.54 0.59 0.59 0.58 0.56 0.56 0.57 0.56 0.58 0.59 0.57 0.56 0.54 0.50 0.48 0.44 0.45 0.49 0.57 0.59 0.57 0.52 0.53 0.57 0.59 0.64 0.76 0.84 0.91 1.05 1.15 1.08 1.02 1.08 1.02 0.79
0.31 0.50 0.59 0.61 0.63 0.57 0.52 0.49 0.47 0.48 0.47 0.47 0.48 0.49 0.50 0.48 0.47 0.44 0.42 0.44 0.50 0.50 0.49 0.47 0.47 0.50 0.47 0.48 0.67 0.78 0.81 0.99 1.06 0.97 0.87 1.00 1.12 0.93
0.33 0.45 0.51 0.56 0.56 0.50 0.46 0.45 0.45 0.44 0.41 0.40 0.43 0.44 0.44 0.43 0.43 0.44 0.42 0.42 0.45 0.46 0.42 0.38 0.39 0.41 0.43 0.54 0.70 0.85 0.85 0.89 0.90 0.83 0.78 0.79 0.98 0.97
0.32 0.37 0.42 0.45 0.47 0.44 0.41 0.39 0.38 0.36 0.34 0.34 0.36 0.39 0.39 0.38 0.36 0.38 0.38 0.36 0.39 0.41 0.40 0.36 0.35 0.37 0.39 0.48 0.70 0.85 0.87 0.72 0.65 0.69 0.71 0.72 0.83 0.83
0.29 0.32 0.34 0.33 0.34 0.35 0.36 0.35 0.32 0.31 0.30 0.30 0.31 0.33 0.34 0.34 0.35 0.31 0.29 0.25 0.29 0.32 0.34 0.36 0.35 0.29 0.30 0.32 0.51 0.69 0.75 0.82 0.70 0.60 0.59 0.60 0.58 0.49
0.26 0.29 0.29 0.28 0.27 0.27 0.27 0.26 0.25 0.24 0.22 0.23 0.28 0.32 0.32 0.31 0.30 0.26 0.24 0.26 0.27 0.29 0.30 0.30 0.28 0.25 0.26 0.33 0.48 0.63 0.64 0.59 0.57 0.59 0.56 0.41 0.29 0.30
0.25 0.26 0.24 0.23 0.22 0.20 0.20 0.19 0.18 0.19 0.19 0.20 0.24 0.28 0.27 0.25 0.23 0.20 0.17 0.16 0.16 0.18 0.22 0.25 0.25 0.23 0.24 0.28 0.34 0.40 0.41 0.36 0.27 0.27 0.41 0.45 0.35 0.35